GLOBALSTAR M080

Last updated on Mon Sep 21 2026 00:03:12 GMT+0000 (Coordinated Universal Time)

1 38041U 11080B 26263.28522597 -.00000101 00000+0 17047-4 0 9990 2 38041 52.0052 89.5234 0001164 94.7409 76.7073 12.62268570680898
UTC large
Height (km)
Speed (km/s)
/
Latitude / Longitude
Inclination (degrees)
Orbital Period (minutes)
Azimuth
Elevation
Range (km)
Doppler Factor

Next 0 passes for location: London (51.5072 / 0.1276)

No passes found over London.
GLOBALSTAR M080